Temperature
5 4 4 4 4 5 5 4 4 4 4 3 2 3 3 3 3 3 3 3 3 4 4 4 3 3 3 3 3 3 3 3 3 3 3 3 3 3 4 4 4 4 4 4
4 4 4 4 4 4 4 4 4 4 4 3 2 2 2 2 2 2 2 2 2 3 3 3 3 3 3 3 3 3 2 2 2 2 2 2 2 2 3 3 3 3 4 4
5 4 4 4 4 4 4 3 3 4 3 3 2 3 2 2 2 2 2 2 2 2 2 2 2 2 2 2 2 2 2 2 2 2 1 2 2 2 2 2 3 3 3 3
3 3 4 4 4 4 4 3 3 3 2 2 2 2 2 1 1 1 1 1 1 1 1 2 2 2 1 1 1 2 2 2 1 1 1 1 1 1 2 2 2 2 3 3
3 3 3 4 4 3 3 2 2 2 1 1 0 1 2 1 1 1 0 0 0 1 1 1 1 1 1 1 1 1 1 1 1 1 0 0 1 1 1 1 2 2 2 2
3 3 3 3 2 3 2 1 1 -0 -0 1 0 0 1 0 1 1 -0 -0 -0 0 0 1 1 1 1 0 0 0 0 1 0 0 0 -0 0 0 0 1 1 1 2 2
3 3 2 2 2 2 1 1 1 1 -0 1 -0 -0 1 1 -0 -0 -1 -1 -0 -0 -0 0 0 0 0 0 -0 -0 -0 0 0 -0 -0 -0 -0 -0 -0 0 1 1 1 1
2 2 2 1 2 1 1 1 2 2 1 0 -1 -1 0 -0 -1 -1 -1 -1 -1 -1 -1 -0 -0 -0 -0 -1 -0 -0 -0 -0 -0 -0 -0 -1 -1 -1 -1 -0 0 0 1 1
1 2 1 1 1 1 1 0 0 -0 -1 -2 -1 -1 -1 -0 -1 -2 -2 -2 -2 -1 -1 -1 -1 -1 -1 -1 -1 -1 -1 -1 -1 -1 -1 -1 -1 -1 -1 -1 -0 -0 -0 0
1 1 1 0 1 0 0 -1 -2 -1 -0 -0 -0 -1 -0 -0 -1 -2 -3 -3 -2 -2 -1 -1 -1 -1 -1 -1 -1 -1 -1 -1 -1 -1 -1 -1 -1 -2 -1 -1 -1 -1 -1 -0
-0 -0 -0 -0 -0 -0 -1 -1 -1 -2 -1 -1 -1 0 -1 -1 -2 -3 -3 -3 -3 -3 -2 -2 -2 -2 -2 -1 -1 -1 -2 -2 -2 -2 -2 -2 -2 -2 -2 -2 -1 -1 -1 -1
-1 -1 -1 -1 -1 -1 -1 -1 -2 -1 -1 -3 -2 -1 -2 -3 -3 -3 -3 -3 -3 -3 -3 -3 -2 -2 -2 -2 -2 -2 -2 -2 -2 -2 -2 -2 -2 -2 -2 -2 -1 -1 -1 -1
-1 -2 -1 -0 -1 -2 -2 -2 -2 -2 -2 -3 -2 -1 -2 -4 -3 -3 -3 -3 -3 -3 -3 -3 -3 -3 -3 -3 -3 -3 -3 -3 -3 -3 -3 -2 -2 -2 -2 -2 -2 -2 -2 -2
-1 -2 -1 -0 -0 -2 -3 -3 -3 -3 -2 -3 -3 -2 -2 -3 -4 -4 -4 -4 -4 -4 -4 -4 -4 -4 -4 -4 -3 -3 -3 -3 -3 -3 -3 -3 -3 -2 -2 -2 -2 -2 -2 -2
-2 -3 -3 -3 -3 -3 -3 -3 -3 -4 -3 -3 -2 -3 -3 -3 -5 -4 -4 -4 -5 -5 -5 -5 -5 -5 -4 -4 -4 -4 -4 -4 -3 -3 -3 -3 -3 -3 -3 -2 -2 -2 -2 -2
-3 -3 -4 -3 -3 -4 -3 -3 -3 -3 -4 -4 -4 -4 -4 -4 -5 -5 -5 -5 -6 -5 -5 -6 -5 -5 -5 -5 -4 -4 -4 -4 -4 -3 -3 -3 -3 -3 -3 -3 -2 -2 -2 -2
-4 -4 -3 -3 -4 -3 -3 -3 -4 -4 -5 -5 -4 -4 -5 -6 -6 -6 -6 -6 -6 -6 -6 -6 -6 -6 -6 -5 -5 -5 -5 -4 -4 -4 -4 -4 -3 -3 -3 -3 -3 -3 -2 -2
-5 -4 -4 -4 -4 -3 -2 -5 -5 -5 -6 -6 -6 -6 -6 -6 -6 -6 -6 -6 -6 -6 -6 -6 -6 -6 -6 -6 -5 -5 -5 -5 -5 -4 -4 -4 -4 -4 -4 -4 -3 -3 -3 -3
-5 -4 -4 -4 -5 -4 -4 -5 -6 -6 -5 -6 -6 -6 -6 -7 -7 -6 -6 -6 -7 -7 -7 -7 -7 -7 -7 -6 -6 -6 -6 -5 -5 -5 -5 -5 -5 -4 -4 -4 -4 -4 -4 -3
-6 -5 -5 -5 -4 -4 -4 -6 -6 -6 -5 -6 -7 -7 -7 -8 -7 -7 -7 -7 -7 -7 -8 -8 -8 -7 -7 -7 -7 -6 -6 -6 -6 -6 -5 -5 -5 -5 -5 -5 -5 -4 -4 -4
-6 -6 -6 -6 -5 -5 -6 -7 -6 -5 -5 -6 -6 -7 -8 -8 -8 -8 -8 -8 -8 -8 -8 -8 -8 -8 -8 -8 -7 -7 -7 -7 -6 -6 -6 -6 -5 -5 -5 -5 -5 -5 -5 -5
-6 -6 -6 -6 -6 -5 -6 -7 -6 -6 -6 -6 -7 -7 -8 -8 -8 -8 -8 -8 -8 -8 -8 -9 -9 -8 -8 -8 -8 -7 -7 -7 -7 -7 -6 -6 -6 -6 -6 -6 -6 -6 -6 -6
-7 -7 -6 -6 -5 -6 -7 -7 -6 -7 -7 -7 -7 -7 -8 -8 -9 -9 -9 -9 -9 -9 -9 -9 -9 -9 -8 -8 -8 -8 -8 -8 -7 -7 -7 -7 -7 -7 -7 -7 -7 -6 -6 -6
-8 -8 -7 -7 -7 -7 -7 -7 -7 -7 -7 -7 -8 -8 -8 -9 -9 -9 -10 -10 -10 -10 -10 -10 -9 -9 -9 -9 -9 -9 -9 -8 -8 -8 -7 -7 -7 -7 -7 -7 -7 -7 -7 -7
-8 -9 -9 -8 -8 -8 -7 -7 -8 -8 -8 -8 -8 -9 -9 -9 -10 -10 -10 -10 -10 -10 -10 -10 -10 -10 -10 -9 -9 -9 -9 -9 -9 -8 -8 -8 -8 -8 -8 -8 -8 -8 -8 -8
-10 -10 -9 -8 -8 -9 -8 -8 -8 -9 -9 -9 -9 -9 -10 -10 -10 -10 -10 -10 -10 -10 -10 -10 -10 -10 -10 -10 -10 -10 -10 -9 -9 -9 -9 -9 -9 -9 -9 -9 -8 -9 -9 -8
Wind_Speed
3 3 2 5 6 4 3 4 6 6 2 3 8 12 12 7 5 6 6 5 5 5 2 1 1 1 1 1 2 2 1 1 1 0 1 1 2 2 2 1 1 1 1 1
3 2 5 3 3 3 3 4 6 6 1 3 6 11 9 6 5 6 6 5 5 3 1 1 1 1 1 1 2 1 1 2 2 2 1 1 2 2 2 2 1 1 1 1
5 3 1 2 2 3 4 6 6 5 4 1 4 8 5 3 2 2 3 4 3 4 3 2 1 1 1 1 2 2 2 2 2 2 1 1 1 1 2 2 2 2 2 2
2 3 1 1 3 4 6 4 4 3 2 4 1 6 6 4 4 4 4 3 3 3 3 2 2 2 2 2 2 2 3 2 2 2 2 2 3 3 4 3 3 3 3 3
3 1 1 2 3 4 4 1 1 1 3 3 1 4 8 2 4 5 5 4 4 3 3 3 3 3 2 2 2 2 3 3 2 3 3 4 4 4 3 3 3 3 3 3
3 1 1 2 1 2 1 2 3 3 3 4 5 5 7 4 5 5 5 4 4 3 2 2 2 2 2 2 2 2 3 3 3 3 4 5 5 4 4 4 4 3 3 3
5 2 1 1 2 2 3 3 3 4 2 6 3 4 9 5 4 4 5 5 4 2 2 2 2 3 3 3 3 3 4 4 4 4 5 5 6 6 7 6 5 4 3 3
4 5 2 1 1 2 2 4 4 4 5 5 2 7 7 3 2 2 2 3 2 2 2 3 3 3 4 4 4 4 5 5 5 5 5 5 5 5 5 6 5 5 4 4
2 5 2 1 1 2 2 2 2 4 1 3 6 6 7 1 3 4 4 4 4 3 3 3 4 4 4 4 5 5 5 5 5 5 5 5 5 5 5 5 5 4 4 4
3 5 4 2 1 2 2 4 3 3 2 5 6 5 4 4 4 5 5 6 5 4 5 5 4 5 5 4 5 5 5 5 6 5 5 4 5 5 5 5 5 5 5 5
2 3 5 2 3 4 2 2 2 2 3 4 4 6 3 4 3 3 4 5 5 5 5 5 5 5 5 5 5 5 5 5 5 5 4 4 5 5 5 6 6 5 5 5
2 2 5 6 3 1 3 4 5 3 4 4 4 7 2 1 2 2 4 6 6 5 5 5 5 6 6 6 6 5 5 5 5 4 4 4 4 4 6 6 6 6 6 6
2 2 4 6 2 1 1 2 3 2 2 4 5 7 2 4 5 5 5 6 7 6 6 6 6 6 7 7 6 6 5 5 5 4 4 4 4 5 5 6 5 5 6 6
1 4 6 8 6 2 4 4 3 4 4 6 9 11 9 8 8 8 7 7 6 6 6 6 7 6 7 7 7 6 6 5 5 4 4 4 5 5 5 5 5 5 6 6
2 4 6 8 6 3 5 7 6 9 8 9 9 9 11 8 7 7 6 7 7 7 8 8 8 7 8 8 8 7 6 6 5 4 4 5 5 4 4 4 4 5 6 6
1 3 3 5 4 4 7 9 9 10 8 9 10 11 8 6 4 5 7 6 7 8 9 10 9 9 9 8 8 8 7 7 5 4 4 5 4 4 4 4 4 4 5 5
2 2 2 5 4 4 7 7 6 4 4 5 7 8 6 7 7 7 6 6 7 8 9 10 10 9 9 9 8 7 7 7 5 5 4 4 4 4 4 4 4 4 4 4
3 2 2 3 4 5 5 1 2 4 4 4 5 6 6 6 7 6 4 4 6 8 8 9 9 10 9 8 8 7 7 6 6 5 5 5 4 5 5 4 4 4 3 3
3 3 2 1 3 7 5 3 1 3 4 2 4 7 6 6 6 4 3 3 5 7 7 7 8 8 8 8 8 7 7 6 6 6 6 5 5 5 5 5 4 4 3 3
2 2 1 2 2 5 4 4 3 1 4 4 3 6 6 5 5 6 6 7 8 8 7 7 8 8 8 8 7 7 7 7 7 7 7 6 5 4 4 5 4 4 3 3
1 0 2 3 5 6 4 4 2 1 5 6 4 4 4 3 4 6 7 8 7 7 7 7 7 7 8 8 7 7 7 8 8 7 7 6 6 5 4 4 4 4 4 3
3 2 3 2 3 6 2 2 1 4 5 5 4 4 4 5 5 6 6 7 7 7 7 7 7 8 8 7 7 7 8 9 8 7 7 7 7 5 5 4 4 4 3 3
3 4 3 5 5 3 1 2 3 4 5 5 5 5 4 5 5 6 5 6 6 6 7 6 6 8 8 7 7 7 9 9 8 8 8 7 7 6 6 5 4 4 3 3
2 1 2 4 5 5 4 4 5 5 6 6 6 6 4 5 6 6 5 5 5 6 6 6 6 7 8 8 8 7 8 8 7 7 7 7 7 7 6 5 4 4 3 3
3 1 2 4 6 7 4 5 6 7 6 6 6 4 4 4 5 5 5 5 5 6 6 5 6 7 8 8 8 8 8 7 7 7 7 7 6 6 6 6 5 5 4 4
1 2 2 4 5 5 7 7 7 7 7 7 6 6 5 4 4 5 5 5 5 6 6 6 6 7 8 8 8 8 8 7 6 6 6 5 5 5 5 5 6 8 7 8
Wind_Direction
33 82 195 215 205 201 193 217 258 262 244 228 245 263 274 268 247 244 242 239 234 236 235 204 182 168 152 162 170 186 179 210 194 278 290 303 294 304 301 299 264 198 165 174
46 247 234 209 198 209 215 248 264 281 273 240 272 274 271 256 232 230 227 231 234 239 255 225 181 148 179 203 208 211 214 225 229 246 257 253 260 268 277 276 275 227 198 200
201 242 243 175 182 217 231 226 249 273 317 296 316 294 272 266 256 272 248 236 234 232 239 242 234 233 239 252 229 243 248 252 251 258 274 309 304 294 289 282 277 259 222 204
239 273 245 190 215 194 252 237 242 266 307 286 357 285 277 272 294 287 280 271 257 256 252 244 245 247 248 264 265 257 253 256 255 241 229 234 242 250 256 258 258 262 230 208
278 295 230 236 238 195 234 306 234 225 193 291 248 228 280 308 287 283 276 267 266 254 239 244 258 256 275 287 282 278 269 268 254 237 234 238 245 247 254 257 243 247 235 217
269 309 242 244 297 192 174 45 67 61 87 264 222 196 273 245 243 274 277 279 282 276 271 279 291 297 300 304 299 295 274 275 266 247 239 236 236 238 244 250 237 242 238 223
321 305 356 34 25 13 59 71 9 343 335 253 201 214 249 250 250 254 277 287 292 289 285 298 311 310 305 299 295 291 281 270 262 252 242 238 236 231 231 237 229 231 235 233
328 298 288 342 163 214 207 152 168 229 251 283 255 236 255 261 299 298 287 289 315 320 309 305 302 301 300 293 292 287 279 274 259 252 248 239 237 234 237 235 229 229 233 233
261 275 328 6 14 143 154 188 171 155 260 276 268 279 298 259 345 355 355 355 340 322 316 315 319 317 305 295 294 288 280 279 268 259 250 241 233 234 237 238 228 232 234 231
190 271 287 310 54 35 137 148 108 141 222 269 285 272 262 288 301 326 340 336 327 332 333 329 323 319 311 300 300 302 287 279 278 269 255 253 240 240 239 238 229 229 231 231
166 229 297 324 208 208 141 158 161 165 182 199 268 272 244 237 270 298 313 321 321 326 326 322 323 320 318 316 309 306 301 293 285 274 265 261 251 245 242 240 233 231 233 233
163 165 268 263 260 209 190 194 165 191 240 208 228 269 297 240 311 317 324 328 327 325 325 325 327 329 329 325 319 308 305 301 289 280 271 265 263 252 247 242 238 232 233 233
159 150 315 328 339 13 249 224 197 179 173 197 214 260 326 352 341 336 334 333 332 333 336 338 338 332 326 322 318 314 311 307 305 295 283 276 272 263 252 247 243 237 235 237
153 188 209 235 254 237 258 248 201 180 216 234 233 259 293 315 320 327 332 331 328 328 332 335 331 325 324 323 321 319 314 311 310 301 289 279 277 272 269 260 246 241 239 238
116 237 241 259 270 257 253 257 226 213 223 233 257 260 281 298 303 312 320 327 335 339 340 334 328 324 323 326 326 324 319 315 313 301 291 285 285 286 285 273 256 246 240 242
148 244 273 276 260 261 273 268 248 238 239 247 265 276 288 311 325 325 324 328 330 332 334 332 332 330 327 326 326 326 325 324 319 308 303 307 310 305 296 285 271 255 248 248
201 195 265 277 305 312 280 260 231 224 227 219 248 269 309 320 321 314 313 321 319 322 327 330 330 328 326 324 323 322 321 325 326 320 318 320 316 312 309 304 295 278 266 257
197 202 230 290 345 260 249 330 215 223 260 236 252 282 300 296 302 302 299 308 316 323 326 326 327 327 325 326 331 329 328 332 332 332 330 325 322 316 315 309 299 294 285 276
196 184 207 235 273 277 304 334 342 239 278 282 279 300 317 331 326 316 336 334 317 318 319 320 322 321 325 330 333 334 335 338 339 335 331 328 325 321 320 315 311 306 301 295
49 119 174 198 240 259 291 325 317 245 295 339 322 310 320 343 325 307 338 337 331 331 331 331 333 334 336 334 337 343 342 345 340 332 329 330 329 323 319 314 314 315 315 308
29 358 222 229 240 265 293 318 359 71 295 323 318 313 312 283 271 299 322 328 331 332 333 338 340 340 336 336 345 349 348 343 333 333 335 336 336 330 323 325 327 330 333 337
192 200 221 203 233 269 330 61 176 265 308 318 316 314 306 296 303 315 323 327 333 338 341 345 345 342 340 345 355 354 347 337 339 343 345 345 344 342 344 348 346 348 350 349
205 206 214 205 229 288 293 268 293 315 310 311 312 311 308 308 311 320 324 325 331 336 336 340 341 341 344 351 359 352 339 340 347 352 352 351 351 355 357 356 351 353 359 356
290 296 233 263 279 295 296 306 320 320 310 310 311 310 310 304 306 313 318 324 330 334 335 338 345 346 343 345 350 344 339 344 351 352 350 352 357 359 2 1 359 1 357 353
279 274 277 274 301 317 320 332 327 327 330 330 332 326 317 312 312 314 318 323 327 330 332 338 341 338 335 340 345 345 345 348 353 353 352 355 359 359 1 3 4 0 359 352
287 223 238 266 289 289 299 317 330 331 332 332 338 340 338 328 317 322 321 322 326 329 332 337 338 337 335 339 342 343 344 347 351 355 356 355 355 358 1 2 1 4 4 3
Height
1493 1497 1500 1499 1499 1498 1500 1502 1502 1498 1496 1497 1495 1491 1485 1484 1484 1484 1483 1483 1483 1483 1484 1485 1485 1486 1486 1487 1488 1488 1489 1489 1489 1489 1488 1489 1489 1490 1491 1492 1493 1494 1496 1498
1497 1499 1496 1496 1497 1498 1500 1501 1500 1496 1495 1496 1494 1489 1483 1481 1480 1480 1479 1479 1479 1480 1480 1481 1481 1482 1482 1483 1484 1484 1485 1485 1485 1485 1485 1486 1486 1486 1487 1488 1489 1491 1492 1494
1496 1496 1495 1495 1497 1498 1498 1500 1499 1498 1496 1495 1496 1487 1481 1478 1478 1477 1477 1476 1476 1476 1476 1477 1477 1478 1479 1479 1480 1481 1481 1481 1481 1482 1482 1482 1483 1483 1483 1484 1485 1487 1488 1490
1497 1495 1495 1494 1495 1496 1496 1495 1496 1497 1500 1501 1499 1497 1481 1479 1478 1475 1474 1474 1473 1474 1474 1474 1474 1475 1475 1476 1477 1477 1478 1478 1478 1478 1478 1478 1478 1478 1479 1480 1481 1483 1484 1486
1496 1495 1494 1494 1494 1495 1495 1495 1497 1497 1500 1504 1502 1502 1484 1481 1478 1474 1473 1472 1471 1471 1471 1471 1472 1472 1473 1473 1474 1474 1474 1474 1474 1474 1474 1474 1474 1475 1475 1476 1478 1479 1480 1482
1496 1495 1495 1494 1494 1494 1495 1497 1499 1503 1505 1504 1499 1501 1487 1481 1476 1473 1471 1470 1470 1469 1469 1470 1470 1470 1470 1471 1470 1470 1470 1470 1470 1470 1470 1470 1470 1471 1471 1472 1473 1474 1476 1477
1498 1496 1495 1495 1495 1495 1496 1500 1505 1505 1509 1500 1499 1497 1485 1474 1473 1472 1471 1469 1468 1468 1467 1467 1467 1467 1467 1467 1466 1466 1466 1466 1466 1466 1465 1465 1466 1466 1467 1467 1468 1470 1471 1473
1503 1499 1496 1496 1496 1498 1498 1499 1504 1505 1505 1501 1499 1495 1479 1473 1471 1470 1470 1469 1467 1466 1466 1465 1465 1465 1464 1464 1463 1462 1462 1461 1461 1461 1461 1461 1461 1461 1462 1463 1464 1465 1467 1469
1505 1500 1497 1495 1495 1496 1498 1501 1501 1507 1512 1513 1499 1491 1479 1471 1471 1470 1469 1467 1466 1465 1464 1464 1463 1463 1462 1461 1460 1459 1458 1457 1457 1457 1456 1456 1456 1457 1457 1458 1459 1461 1462 1464
1504 1504 1498 1496 1496 1497 1498 1500 1506 1507 1506 1505 1496 1491 1481 1473 1471 1470 1469 1467 1465 1464 1463 1462 1461 1460 1459 1458 1457 1456 1455 1454 1453 1452 1452 1452 1452 1452 1453 1454 1455 1456 1457 1459
1504 1506 1501 1499 1498 1497 1500 1501 1501 1504 1505 1506 1501 1485 1475 1473 1471 1471 1469 1467 1465 1464 1462 1461 1459 1458 1457 1455 1454 1452 1451 1449 1448 1448 1447 1447 1447 1448 1448 1449 1450 1451 1452 1454
1503 1506 1505 1499 1496 1496 1496 1497 1499 1500 1502 1507 1504 1487 1473 1472 1470 1470 1468 1466 1465 1463 1461 1460 1458 1456 1454 1452 1450 1448 1447 1445 1445 1444 1443 1443 1443 1444 1444 1444 1445 1446 1447 1449
1503 1506 1505 1497 1499 1499 1498 1498 1498 1498 1500 1504 1501 1484 1473 1471 1469 1469 1468 1465 1463 1462 1460 1458 1456 1453 1451 1449 1446 1445 1443 1441 1441 1440 1439 1439 1439 1439 1439 1439 1440 1441 1442 1444
1499 1503 1503 1498 1493 1496 1498 1497 1498 1499 1498 1497 1491 1479 1473 1472 1470 1468 1466 1465 1463 1461 1458 1456 1454 1451 1449 1446 1444 1441 1440 1439 1437 1436 1435 1435 1435 1435 1435 1435 1436 1437 1438 1439
1500 1502 1501 1498 1495 1496 1496 1494 1494 1495 1491 1489 1481 1479 1473 1472 1471 1469 1466 1464 1462 1459 1457 1455 1452 1449 1446 1444 1441 1439 1437 1436 1434 1433 1432 1431 1431 1430 1430 1431 1431 1432 1433 1434
1500 1502 1501 1497 1493 1495 1492 1487 1487 1487 1486 1485 1481 1478 1472 1472 1470 1467 1465 1463 1461 1458 1456 1453 1450 1447 1445 1442 1439 1437 1434 1433 1431 1430 1429 1428 1427 1427 1427 1427 1427 1428 1429 1429
1501 1502 1500 1496 1494 1490 1488 1483 1482 1483 1482 1482 1480 1476 1472 1471 1468 1466 1464 1462 1460 1458 1455 1452 1449 1446 1443 1441 1438 1435 1433 1431 1429 1428 1427 1426 1425 1424 1424 1424 1424 1424 1424 1425
1500 1500 1500 1498 1496 1491 1482 1481 1480 1480 1480 1479 1477 1474 1472 1470 1467 1465 1463 1461 1459 1457 1454 1451 1448 1445 1443 1440 1437 1435 1432 1429 1427 1425 1424 1423 1422 1421 1421 1421 1420 1420 1420 1420
1496 1498 1500 1501 1500 1490 1482 1481 1482 1482 1478 1476 1476 1473 1471 1469 1465 1462 1462 1461 1459 1456 1454 1450 1447 1445 1441 1439 1436 1433 1430 1428 1426 1424 1423 1422 1420 1419 1419 1418 1417 1417 1416 1416
1497 1498 1500 1501 1498 1493 1485 1482 1480 1481 1478 1475 1474 1472 1470 1468 1468 1463 1461 1459 1457 1454 1452 1449 1446 1443 1440 1438 1435 1432 1429 1427 1425 1423 1421 1420 1419 1418 1416 1415 1415 1414 1413 1412
1502 1502 1502 1501 1500 1490 1485 1482 1481 1483 1479 1475 1473 1471 1470 1469 1468 1464 1461 1458 1455 1453 1450 1447 1445 1442 1440 1437 1434 1431 1428 1426 1424 1422 1421 1419 1417 1416 1415 1414 1413 1412 1411 1409
1501 1502 1502 1501 1501 1492 1484 1482 1484 1481 1476 1474 1472 1470 1468 1466 1464 1462 1459 1457 1454 1451 1448 1446 1443 1441 1439 1437 1433 1430 1427 1426 1424 1422 1420 1418 1416 1415 1413 1412 1411 1410 1408 1407
1499 1497 1495 1496 1492 1485 1482 1482 1480 1478 1476 1473 1471 1468 1467 1464 1462 1460 1457 1455 1453 1450 1448 1445 1443 1440 1438 1436 1433 1430 1428 1426 1423 1421 1419 1417 1415 1414 1412 1411 1409 1408 1407 1406
1496 1494 1494 1492 1485 1483 1482 1480 1478 1476 1474 1472 1470 1467 1464 1462 1460 1458 1456 1453 1451 1449 1447 1445 1442 1439 1437 1435 1433 1431 1428 1425 1423 1420 1418 1416 1414 1413 1412 1410 1409 1408 1406 1405
1496 1494 1493 1490 1485 1482 1479 1479 1477 1474 1472 1469 1467 1465 1463 1460 1458 1456 1454 1452 1450 1448 1446 1444 1442 1439 1437 1435 1433 1430 1428 1425 1423 1420 1418 1416 1414 1413 1411 1410 1409 1407 1407 1406
1495 1495 1494 1490 1486 1485 1481 1478 1476 1473 1470 1468 1465 1462 1461 1459 1456 1454 1452 1451 1449 1447 1445 1443 1441 1439 1437 1435 1432 1430 1428 1425 1423 1420 1418 1416 1415 1413 1411 1410 1409 1408 1407 1406